DW6656 Black Diamond WA US current weather conditions

sailwx.info

Wind from 247

Air temperature 18.9° C
Dewpoint 11.2° C

Last reported at 2020-Jul-05 03:59 UTC.
Time now 2020-Jul-05 04:22 UTC

Location: N 47°20' W 122°02'.
View on Google Maps.

See reports from other nearby stations

  
Tides and Currents Weather Stations Pressure Air Temp Water Temp Dewpoint Dewpoint Depression Visibility Wind Speed Wind Dir Waves Ship Positions
date/time (UTC)wind fromknots sea level pressurealtimeterstation pressurevisibilityair tempwater tempwave heightnotes
2020-Jul-05 03:59 247 18.9
2020-Jul-05 03:53 273 18.9
2020-Jul-05 03:48 273 18.9
2020-Jul-05 03:43 246 18.9
2020-Jul-05 03:38 246 0 gusting 5 18.9
2020-Jul-05 03:33 246 0 gusting 5 19.4
2020-Jul-05 03:27 274 0 gusting 5 19.4
2020-Jul-05 03:22 277 0 gusting 3 19.4
2020-Jul-05 03:17 257 1 gusting 3 19.4
2020-Jul-05 03:12 263 0 gusting 3 19.4
2020-Jul-05 03:07 263 0 gusting 3 20.0
2020-Jul-05 03:02 274 20.0
2020-Jul-05 02:57 280 0 gusting 5 20.0
2020-Jul-05 02:51 279 0 gusting 5 20.0
2020-Jul-05 02:46 280 1 gusting 5 20.0
2020-Jul-05 02:41 271 0 gusting 6 20.0
2020-Jul-05 02:36 260 0 gusting 6 20.0
2020-Jul-05 02:31 270 0 gusting 6 20.0
2020-Jul-05 02:26 259 0 gusting 5 20.0
2020-Jul-05 02:21 275 0 gusting 5 20.0
2020-Jul-05 02:16 321 1 gusting 5 20.0
2020-Jul-05 02:11 263 1 gusting 7 20.0
2020-Jul-05 02:05 281 0 gusting 6 20.6
2020-Jul-05 02:00 245 0 gusting 5 20.6
2020-Jul-05 01:55 268 0 gusting 5 20.6
2020-Jul-05 01:49 069 0 gusting 4 20.6
2020-Jul-05 01:44 320 1 gusting 6 20.6
2020-Jul-05 01:39 280 0 gusting 6 20.6
2020-Jul-05 01:34 300 0 gusting 6 20.6
2020-Jul-05 01:29 249 0 gusting 6 20.6
2020-Jul-05 01:23 310 20.6
2020-Jul-05 01:18 304 0 gusting 3 20.6
2020-Jul-05 01:07 289 0 gusting 8 20.6
2020-Jul-05 01:02 284 20.6
2020-Jul-05 00:57 066 21.1
2020-Jul-05 00:52 316 21.1
2020-Jul-05 00:47 320 0 gusting 6 21.1
2020-Jul-05 00:42 273 0 gusting 6 21.1
2020-Jul-05 00:37 321 0 gusting 7 20.6
2020-Jul-05 00:32 274 0 gusting 7 20.6
2020-Jul-05 00:26 271 0 gusting 5 20.6
2020-Jul-05 00:21 271 0 gusting 6 20.6
2020-Jul-05 00:16 251 0 gusting 6 20.6
2020-Jul-05 00:11 269 0 gusting 6 20.6
2020-Jul-05 00:06 275 1 gusting 5 20.6
2020-Jul-05 00:00 261 0 gusting 7 20.6
2020-Jul-04 23:55 267 20.0
2020-Jul-04 23:51 020 0 gusting 6 20.0
2020-Jul-04 23:45 329 0 gusting 6 20.0
2020-Jul-04 23:40 321 0 gusting 5 20.0
2020-Jul-04 23:34 313 0 gusting 6 20.0
2020-Jul-04 23:29 317 0 gusting 6 19.4
2020-Jul-04 23:24 317 0 gusting 6 19.4
2020-Jul-04 23:19 289 19.4
2020-Jul-04 23:14 277 19.4
2020-Jul-04 23:08 313 19.4
2020-Jul-04 23:03 313 19.4
2020-Jul-04 22:57 313 19.4
2020-Jul-04 22:52 313 19.4
2020-Jul-04 22:47 313 19.4
2020-Jul-04 22:42 313 19.4
2020-Jul-04 22:37 321 19.4
2020-Jul-04 22:31 321 19.4
2020-Jul-04 22:26 319 19.4
2020-Jul-04 22:21 319 0 gusting 6 19.4
2020-Jul-04 22:16 317 0 gusting 6 19.4
2020-Jul-04 22:11 282 0 gusting 5 19.4
2020-Jul-04 22:06 252 0 gusting 4 19.4
2020-Jul-04 22:01 355 0 gusting 4 19.4
2020-Jul-04 21:56 087 19.4
2020-Jul-04 21:51 096 0 gusting 7 19.4
2020-Jul-04 21:46 260 2 gusting 7 18.9
2020-Jul-04 21:40 280 1 gusting 6 18.9
2020-Jul-04 21:35 317 0 gusting 6 18.9
2020-Jul-04 21:30 279 0 gusting 6 18.9
2020-Jul-04 21:24 284 18.9
2020-Jul-04 21:19 273 18.9
2020-Jul-04 21:14 273 18.9
2020-Jul-04 21:09 281 0 gusting 5 18.9
2020-Jul-04 21:04 313 0 gusting 5 18.9
2020-Jul-04 20:58 314 18.9
2020-Jul-04 20:50 307 0 gusting 3 18.9
2020-Jul-04 20:42 256 0 gusting 4 18.9
2020-Jul-04 20:37 290 0 gusting 4 18.9
2020-Jul-04 20:32 071 18.3
2020-Jul-04 20:27 311 18.3
2020-Jul-04 20:22 311 0 gusting 4 18.3
2020-Jul-04 20:17 260 0 gusting 4 18.3
2020-Jul-04 20:12 311 0 gusting 6 18.3
2020-Jul-04 20:07 293 0 gusting 6 18.3
2020-Jul-04 20:02 292 0 gusting 4 18.3
2020-Jul-04 19:57 284 2 gusting 8 18.3
2020-Jul-04 19:52 275 1 gusting 8 18.3
2020-Jul-04 19:46 304 0 gusting 7 18.3
2020-Jul-04 19:41 273 2 gusting 8 17.8
2020-Jul-04 19:36 294 2 gusting 8 17.8
2020-Jul-04 19:31 297 2 gusting 6 17.8
2020-Jul-04 19:25 292 1 gusting 6 17.8
2020-Jul-04 19:20 283 0 gusting 5 17.8
2020-Jul-04 19:15 286 0 gusting 5 17.8
2020-Jul-04 19:10 299 17.8
2020-Jul-04 19:05 317 17.8
2020-Jul-04 18:59 310 0 gusting 6 17.2
2020-Jul-04 18:54 297 0 gusting 6 17.2
2020-Jul-04 18:49 355 0 gusting 5 17.2
2020-Jul-04 18:44 290 0 gusting 6 17.2
2020-Jul-04 18:38 306 0 gusting 5 17.2
2020-Jul-04 18:33 290 0 gusting 6 17.2
2020-Jul-04 18:28 288 0 gusting 6 16.7
2020-Jul-04 18:23 304 17.2
2020-Jul-04 18:17 275 17.2
2020-Jul-04 18:12 321 16.7
2020-Jul-04 18:07 074 0 gusting 3 16.7
2020-Jul-04 18:02 078 16.7
2020-Jul-04 17:57 043 15.6
2020-Jul-04 17:52 170 15.6
2020-Jul-04 17:47 311 15.6
2020-Jul-04 17:41 311 0 gusting 6 15.0
2020-Jul-04 17:36 294 0 gusting 6 15.0
2020-Jul-04 17:31 283 15.0
2020-Jul-04 17:26 309 15.6
2020-Jul-04 17:21 283 0 gusting 4 15.6
2020-Jul-04 17:16 289 15.6
2020-Jul-04 17:11 294 15.6
2020-Jul-04 17:05 292 0 gusting 6 15.6
2020-Jul-04 17:00 297 0 gusting 6 15.6
2020-Jul-04 16:55 313 15.6
2020-Jul-04 16:50 290 15.6
2020-Jul-04 16:45 302 15.6
2020-Jul-04 16:40 302 15.6
2020-Jul-04 16:34 301 15.6
2020-Jul-04 16:29 301 15.0
2020-Jul-04 16:24 301 15.0
2020-Jul-04 16:19 300 15.0
2020-Jul-04 16:14 300 15.0
2020-Jul-04 16:09 299 14.4
2020-Jul-04 16:04 256 14.4
2020-Jul-04 15:58 298 14.4
2020-Jul-04 15:53 298 0 gusting 2 14.4
2020-Jul-04 15:48 290 0 gusting 3 14.4
2020-Jul-04 15:43 294 14.4
2020-Jul-04 15:38 276 14.4
2020-Jul-04 15:33 276 13.9
2020-Jul-04 15:28 276 13.9
2020-Jul-04 15:23 276 13.9
2020-Jul-04 15:17 276 13.9
2020-Jul-04 15:12 276 13.3
2020-Jul-04 15:07 276 13.3
2020-Jul-04 15:01 276 13.3
2020-Jul-04 14:56 276 13.3
2020-Jul-04 14:51 276 13.3
2020-Jul-04 14:46 276 13.3
2020-Jul-04 14:41 276 12.8
2020-Jul-04 14:36 276 12.8
2020-Jul-04 14:30 276 12.8
2020-Jul-04 14:25 276 12.8
2020-Jul-04 14:20 276 12.8
2020-Jul-04 14:15 276 12.8
2020-Jul-04 14:10 276 12.8
2020-Jul-04 14:04 276 12.8
2020-Jul-04 13:59 276 12.8
2020-Jul-04 13:54 276 12.2
2020-Jul-04 13:49 276 12.2
2020-Jul-04 13:44 276 12.2
2020-Jul-04 13:39 275 12.2
2020-Jul-04 13:33 275 12.2
2020-Jul-04 13:28 275 11.7
2020-Jul-04 13:23 275 11.7
2020-Jul-04 13:18 275 11.7
2020-Jul-04 13:13 275 11.7
2020-Jul-04 13:08 275 11.7
2020-Jul-04 13:02 275 11.7
2020-Jul-04 12:57 275 11.7
2020-Jul-04 12:51 275 11.7
2020-Jul-04 12:46 275 11.7
2020-Jul-04 12:41 275 11.7
2020-Jul-04 12:36 275 11.7
2020-Jul-04 12:31 275 11.7
2020-Jul-04 12:26 275 11.7
2020-Jul-04 12:21 275 11.7
2020-Jul-04 12:16 275 11.7
2020-Jul-04 12:11 275 11.7
2020-Jul-04 12:05 275 11.7
2020-Jul-04 12:00 275 11.7
2020-Jul-04 11:55 275 11.7
2020-Jul-04 11:49 275 11.7
2020-Jul-04 11:44 275 12.2
2020-Jul-04 11:39 275 12.2
2020-Jul-04 11:34 275 12.2
2020-Jul-04 11:29 275 12.2
2020-Jul-04 11:24 275 12.2
2020-Jul-04 11:19 275 12.2
2020-Jul-04 11:14 275 12.2
2020-Jul-04 11:08 275 12.2
2020-Jul-04 11:04 275 12.2
2020-Jul-04 10:58 275 12.2
2020-Jul-04 10:52 275 12.8
2020-Jul-04 10:47 275 12.8
2020-Jul-04 10:42 275 12.8
2020-Jul-04 10:37 275 12.8
2020-Jul-04 10:32 275 12.8
2020-Jul-04 10:27 275 12.8
2020-Jul-04 10:22 275 12.8
2020-Jul-04 10:17 275 12.8
2020-Jul-04 10:11 275 12.8
2020-Jul-04 10:06 275 12.8
2020-Jul-04 10:01 275 13.3
2020-Jul-04 09:56 275 13.3
2020-Jul-04 09:51 275 13.3
2020-Jul-04 09:46 275 13.3
2020-Jul-04 09:41 275 13.3
2020-Jul-04 09:36 275 13.3
2020-Jul-04 09:31 275 13.3
2020-Jul-04 09:26 275 13.3
2020-Jul-04 09:20 275 13.3
2020-Jul-04 09:15 275 13.3
2020-Jul-04 09:10 275 13.9
2020-Jul-04 09:04 275 13.9
2020-Jul-04 08:59 275 13.9
2020-Jul-04 08:54 275 13.9
2020-Jul-04 08:49 275 13.9
2020-Jul-04 08:44 275 13.9
2020-Jul-04 08:38 275 13.9
2020-Jul-04 08:33 275 13.9
2020-Jul-04 08:28 275 13.9
2020-Jul-04 08:23 275 14.4
2020-Jul-04 08:17 275 14.4
2020-Jul-04 08:12 275 14.4
2020-Jul-04 08:07 275 14.4
2020-Jul-04 08:01 275 14.4
2020-Jul-04 07:56 275 14.4
2020-Jul-04 07:51 275 14.4
2020-Jul-04 07:46 275 14.4
2020-Jul-04 07:41 275 14.4
2020-Jul-04 07:36 275 14.4
2020-Jul-04 07:31 275 14.4
2020-Jul-04 07:26 275 14.4
2020-Jul-04 07:21 275 14.4
2020-Jul-04 07:15 275 14.4
2020-Jul-04 07:10 275 14.4
2020-Jul-04 07:05 275 15.0
2020-Jul-04 07:00 275 15.0
2020-Jul-04 06:55 275 15.0
2020-Jul-04 06:50 275 15.0
2020-Jul-04 06:45 275 15.0
2020-Jul-04 06:39 275 15.0
2020-Jul-04 06:34 275 15.0
2020-Jul-04 06:29 275 15.0
2020-Jul-04 06:24 275 15.0
2020-Jul-04 06:20 275 15.0
2020-Jul-04 06:14 275 15.0
2020-Jul-04 06:09 275 15.0
2020-Jul-04 06:04 275 15.0
2020-Jul-04 05:59 275 15.0
2020-Jul-04 05:53 275 15.0
2020-Jul-04 05:48 275 15.0
2020-Jul-04 05:43 275 15.6
2020-Jul-04 05:37 275 15.6
2020-Jul-04 05:32 275 15.6
2020-Jul-04 05:27 275 15.6
2020-Jul-04 05:22 275 15.6
2020-Jul-04 05:17 275 15.6
2020-Jul-04 05:11 275 15.6
2020-Jul-04 05:06 275 15.6
2020-Jul-04 05:00 275 16.1
2020-Jul-04 04:55 275 16.1
2020-Jul-04 04:50 275 16.1
2020-Jul-04 04:45 275 16.1
2020-Jul-04 04:40 275 16.1
2020-Jul-04 04:35 275 16.1
2020-Jul-04 04:29 275 16.7
2020-Jul-04 04:24 275 16.7
2020-Jul-04 04:19 275 16.7
2020-Jul-04 04:14 275 16.7
2020-Jul-04 04:09 275 16.7
2020-Jul-04 04:04 275 16.7
2020-Jul-04 03:59 275 16.7
2020-Jul-04 03:54 275 16.7
2020-Jul-04 03:49 275 16.7
2020-Jul-04 03:44 298 16.7
2020-Jul-04 03:38 298 17.2
2020-Jul-04 03:33 298 17.2
2020-Jul-04 03:27 298 17.2
2020-Jul-04 03:22 298 17.2
2020-Jul-04 03:17 298 17.2
2020-Jul-04 03:12 298 17.2
2020-Jul-04 03:07 298 17.2
2020-Jul-04 03:02 298 17.8
2020-Jul-04 02:57 297 17.8
2020-Jul-04 02:52 297 17.8
2020-Jul-04 02:47 294 0 gusting 3 17.8
2020-Jul-04 02:41 306 17.8
2020-Jul-04 02:36 306 0 gusting 3 17.8
2020-Jul-04 02:31 279 17.8
2020-Jul-04 02:26 275 17.2
2020-Jul-04 02:21 291 17.2
2020-Jul-04 02:16 316 0 gusting 6 17.2
2020-Jul-04 02:10 281 0 gusting 6 17.2
2020-Jul-04 02:05 076 17.8
2020-Jul-04 02:00 076 17.8
2020-Jul-04 01:55 076 17.8
2020-Jul-04 01:50 076 17.8
2020-Jul-04 01:44 077 17.8
2020-Jul-04 01:39 077 17.8
2020-Jul-04 01:33 077 17.8
2020-Jul-04 01:28 274 17.8
2020-Jul-04 01:23 275 0 gusting 3 17.8
2020-Jul-04 01:18 283 1 gusting 6 17.8
2020-Jul-04 01:13 281 1 gusting 6 17.8
2020-Jul-04 01:07 293 0 gusting 6 17.8
2020-Jul-04 01:02 279 17.8
2020-Jul-04 00:57 279 17.8
2020-Jul-04 00:52 279 17.8
2020-Jul-04 00:47 281 17.8
2020-Jul-04 00:42 279 0 gusting 6 17.8
2020-Jul-04 00:37 279 0 gusting 6 17.8
2020-Jul-04 00:32 026 17.8
2020-Jul-04 00:26 273 17.8
2020-Jul-04 00:21 273 0 gusting 3 17.2
2020-Jul-04 00:16 284 0 gusting 3 17.8
2020-Jul-04 00:11 275 17.2
2020-Jul-04 00:06 074 17.2
2020-Jul-04 00:00 074 17.2
2020-Jul-03 23:55 074 17.2
2020-Jul-03 23:50 074 17.2
2020-Jul-03 23:45 074 17.2
2020-Jul-03 23:40 080 17.2
2020-Jul-03 23:35 080 17.2
2020-Jul-03 23:30 080 17.2
2020-Jul-03 23:25 080 0 gusting 2 17.2
2020-Jul-03 23:20 080 0 gusting 2 17.2
2020-Jul-03 23:14 080 0 gusting 3 17.2
2020-Jul-03 23:09 080 0 gusting 3 17.2
2020-Jul-03 23:03 080 0 gusting 4 17.8
2020-Jul-03 22:58 078 0 gusting 4 17.8
2020-Jul-03 22:53 079 17.8
2020-Jul-03 22:48 084 17.8
2020-Jul-03 22:42 084 17.8
2020-Jul-03 22:37 084 17.8
2020-Jul-03 22:32 084 17.8
2020-Jul-03 22:27 084 17.8
2020-Jul-03 22:21 084 17.8
2020-Jul-03 22:16 084 17.2
2020-Jul-03 22:11 084 17.2
2020-Jul-03 22:06 084 17.2
2020-Jul-03 22:01 342 17.2
2020-Jul-03 21:55 342 0 gusting 3 16.7
2020-Jul-03 21:50 344 0 gusting 3 16.7
2020-Jul-03 21:45 279 0 gusting 3 17.2
2020-Jul-03 21:40 286 0 gusting 5 17.2
2020-Jul-03 21:35 286 0 gusting 3 17.2
2020-Jul-03 21:29 297 17.2
2020-Jul-03 21:24 039 17.2
2020-Jul-03 21:19 039 16.7
2020-Jul-03 21:14 039 16.7
2020-Jul-03 21:08 039 16.7
2020-Jul-03 21:03 039 16.7
2020-Jul-03 20:58 039 16.7
2020-Jul-03 20:53 039 16.7
2020-Jul-03 20:48 039 16.7
2020-Jul-03 20:43 039 16.7
2020-Jul-03 20:38 039 16.7
2020-Jul-03 20:33 039 16.7
2020-Jul-03 20:28 039 16.7
2020-Jul-03 20:23 039 16.7
2020-Jul-03 20:18 039 16.7
2020-Jul-03 20:13 039 16.7
2020-Jul-03 20:08 039 16.7
2020-Jul-03 20:02 039 16.7
2020-Jul-03 19:57 039 16.7
2020-Jul-03 19:52 039 16.1
2020-Jul-03 19:47 039 16.7
2020-Jul-03 19:42 039 16.1
2020-Jul-03 19:37 039 16.1
2020-Jul-03 19:32 039 16.1
2020-Jul-03 19:26 039 16.7
2020-Jul-03 19:21 039 16.1
2020-Jul-03 19:16 039 16.1
2020-Jul-03 19:11 039 16.1
2020-Jul-03 19:06 039 16.1
2020-Jul-03 19:01 039 16.1
2020-Jul-03 18:56 063 15.6
2020-Jul-03 18:50 063 15.6
2020-Jul-03 18:45 063 15.6
2020-Jul-03 18:39 063 15.6
2020-Jul-03 18:34 311 15.6
2020-Jul-03 18:29 311 15.6
2020-Jul-03 18:23 311 15.6
2020-Jul-03 18:18 311 15.6
2020-Jul-03 18:13 311 15.6
2020-Jul-03 18:08 325 15.6
2020-Jul-03 18:02 325 15.6
2020-Jul-03 17:57 284 15.6
2020-Jul-03 17:52 284 15.6
2020-Jul-03 17:47 284 15.0
2020-Jul-03 17:41 284 15.0
2020-Jul-03 17:36 284 15.6
2020-Jul-03 17:31 284 15.6
2020-Jul-03 17:26 284 15.6
2020-Jul-03 17:21 284 15.0
2020-Jul-03 17:15 284 15.0
2020-Jul-03 17:10 284 15.0
2020-Jul-03 17:05 284 15.0
2020-Jul-03 17:00 284 15.0
2020-Jul-03 16:55 284 15.0
2020-Jul-03 16:50 284 15.0
2020-Jul-03 16:45 284 14.4
2020-Jul-03 16:40 284 14.4
2020-Jul-03 16:34 284 14.4
2020-Jul-03 16:30 284 14.4
2020-Jul-03 16:24 284 14.4
2020-Jul-03 16:19 284 14.4
2020-Jul-03 16:14 284 14.4
2020-Jul-03 16:09 284 14.4
2020-Jul-03 16:04 284 14.4
2020-Jul-03 15:59 284 14.4
2020-Jul-03 15:53 284 14.4
2020-Jul-03 15:48 284 14.4
2020-Jul-03 15:43 284 14.4
2020-Jul-03 15:37 284 13.9
2020-Jul-03 15:32 284 13.9
2020-Jul-03 15:27 284 13.9
2020-Jul-03 15:21 284 13.9
2020-Jul-03 15:16 284 13.9
2020-Jul-03 15:11 284 13.9
2020-Jul-03 15:06 284 13.9
2020-Jul-03 15:01 284 13.9
2020-Jul-03 14:56 284 13.9
2020-Jul-03 14:51 284 13.3
2020-Jul-03 14:45 284 13.3
2020-Jul-03 14:40 284 13.3
2020-Jul-03 14:34 284 13.3
2020-Jul-03 14:24 284 13.3
2020-Jul-03 14:19 284 13.3
2020-Jul-03 14:14 284 13.3
2020-Jul-03 14:09 284 13.3
2020-Jul-03 14:04 284 13.3
2020-Jul-03 13:58 284 13.3
2020-Jul-03 13:54 284 13.3
2020-Jul-03 13:48 284 13.3
2020-Jul-03 13:43 284 13.3
2020-Jul-03 13:38 284 13.3
2020-Jul-03 13:32 284 13.3
2020-Jul-03 13:27 284 13.3
2020-Jul-03 13:22 284 13.3
2020-Jul-03 13:17 284 13.3
2020-Jul-03 13:12 284 13.3
2020-Jul-03 13:07 284 13.3
2020-Jul-03 13:01 284 13.3
2020-Jul-03 12:56 284 13.3
2020-Jul-03 12:51 284 13.3
2020-Jul-03 12:45 284 13.3
2020-Jul-03 12:40 284 13.3
2020-Jul-03 12:35 284 13.3
2020-Jul-03 12:30 284 13.3
2020-Jul-03 12:24 284 13.3
2020-Jul-03 12:19 284 13.3
2020-Jul-03 12:14 284 13.3
2020-Jul-03 12:08 284 13.3
2020-Jul-03 12:03 284 13.3
2020-Jul-03 11:57 284 13.3
2020-Jul-03 11:52 284 13.3
2020-Jul-03 11:47 284 13.3
2020-Jul-03 11:41 284 13.3
2020-Jul-03 11:36 284 13.3
2020-Jul-03 11:31 284 13.3
2020-Jul-03 11:26 284 13.3
2020-Jul-03 11:21 284 13.3
2020-Jul-03 11:16 284 13.3
2020-Jul-03 11:10 284 13.3
2020-Jul-03 11:05 284 13.3
2020-Jul-03 11:00 284 13.3
2020-Jul-03 10:55 284 13.3
2020-Jul-03 10:50 284 13.3
2020-Jul-03 10:44 284 13.3
2020-Jul-03 10:39 284 13.3
2020-Jul-03 10:34 284 13.3
2020-Jul-03 10:29 284 13.3
2020-Jul-03 10:24 284 13.3
2020-Jul-03 10:18 284 13.3
2020-Jul-03 10:13 284 13.3
2020-Jul-03 10:08 284 13.3
2020-Jul-03 10:03 284 13.3
2020-Jul-03 09:58 284 13.3
2020-Jul-03 09:53 284 13.3
2020-Jul-03 09:42 284 13.3
2020-Jul-03 09:37 284 13.3
2020-Jul-03 09:32 284 13.3
2020-Jul-03 09:26 284 13.9
2020-Jul-03 09:21 284 13.9
2020-Jul-03 09:15 284 13.9
2020-Jul-03 09:11 284 13.9
2020-Jul-03 09:05 284 13.9
2020-Jul-03 09:00 284 13.9
2020-Jul-03 08:55 284 13.9
2020-Jul-03 08:50 284 13.9
2020-Jul-03 08:45 284 13.9
2020-Jul-03 08:40 284 13.9
2020-Jul-03 08:35 284 13.9
2020-Jul-03 08:29 284 13.9
2020-Jul-03 08:25 284 13.9
2020-Jul-03 08:19 284 13.9
2020-Jul-03 08:14 284 13.9
2020-Jul-03 08:09 284 13.9
2020-Jul-03 08:03 284 14.4
2020-Jul-03 07:58 284 14.4
2020-Jul-03 07:53 284 14.4
2020-Jul-03 07:48 284 14.4
2020-Jul-03 07:43 284 14.4
2020-Jul-03 07:37 284 14.4
2020-Jul-03 07:32 284 14.4
2020-Jul-03 07:26 284 14.4
2020-Jul-03 07:21 284 14.4
2020-Jul-03 07:15 284 14.4
2020-Jul-03 07:10 284 14.4
2020-Jul-03 07:05 284 14.4
2020-Jul-03 07:00 284 14.4
2020-Jul-03 06:55 284 14.4
2020-Jul-03 06:50 284 14.4
2020-Jul-03 06:45 284 14.4
2020-Jul-03 06:40 284 14.4
2020-Jul-03 06:35 284 14.4
2020-Jul-03 06:30 284 14.4
2020-Jul-03 06:19 284 14.4
2020-Jul-03 06:14 284 14.4
2020-Jul-03 06:09 284 14.4
2020-Jul-03 06:04 284 15.0
2020-Jul-03 05:59 284 15.0
2020-Jul-03 05:54 284 15.0
2020-Jul-03 05:48 284 15.0
2020-Jul-03 05:43 284 15.0
2020-Jul-03 05:37 284 15.0
2020-Jul-03 05:32 284 15.0
2020-Jul-03 05:27 284 15.0
2020-Jul-03 05:22 284 15.0
2020-Jul-03 05:17 284 15.0
2020-Jul-03 05:11 284 15.0
2020-Jul-03 05:06 284 15.0
2020-Jul-03 05:01 284 15.0
2020-Jul-03 04:56 284 15.6
2020-Jul-03 04:51 284 15.6
2020-Jul-03 04:45 284 15.6
2020-Jul-03 04:40 284 15.6
2020-Jul-03 04:35 284 15.6
2020-Jul-03 04:30 284 15.6
2020-Jul-03 04:24 284 15.6
2020-Jul-03 04:19 284 15.6
2020-Jul-03 04:14 284 15.6
2020-Jul-03 04:09 284 15.6
2020-Jul-03 04:03 284 15.6